Home   Weather   Comodoro Rivadavia   Past weeks

Flag for Argentina Past Weather in Comodoro Rivadavia, Chubut, Argentina — Yesterday and Last 2 Weeks

Now
48 °F

Passing clouds.


Feels Like: 42 °F
Forecast: 48 / 56 °F
Wind: 16 mph from West

Location: Comodoro Rivadavia Aerodrome

Current Time: Apr 25, 2017 at 6:07:31 am

Latest Report: Apr 25, 2017 at 5:00 am


Visibility: N/A

Pressure: 29.59 "Hg

Humidity: 66%

Dew Point: 37 °F

Location of Comodoro RivadaviaLocation

Past Weather in Comodoro Rivadavia — Graph

°F

Comodoro Rivadavia Temperature Yesterday

Maximum temperature yesterday: 64 °F (at 4:00 pm)
Minimum temperature yesterday: 52 °F (at 2:00 am)
Average temperature yesterday: 56 °F

High & Low Weather Summary for the Past Weeks

 TemperatureHumidityPressure
High73 °F (Apr 17, 2:00 pm)100% (Apr 14, 6:00 am)30.42 "Hg (Apr 14, 6:00 am)
Low43 °F (Apr 11, 8:00 am)22% (Apr 22, 2:00 pm)29.56 "Hg (Apr 24, 3:00 pm)
Average56 °F58%29.97 "Hg
* Reported Apr 10 4:00 am — Apr 25 4:00 am, Comodoro Rivadavia, Weather by CustomWeather, © 2017

Note: Actual official high and low records may vary slightly from our data, if they occured in-between our weather recording intervals... More about our weather records

Advertising

Comodoro Rivadavia Weather History for the Previous 24 Hours

Scroll right to see more
 ConditionsComfort  
Time TempWeatherWind HumidityBarometerVisibility
4:00 am
Tue, Apr 25
50 °FPassing clouds.17 mph67%29.59 "HgN/A
3:00 am50 °FPassing clouds.10 mph67%29.62 "HgN/A
2:00 am52 °FPassing clouds.10 mph58%29.59 "HgN/A
1:00 am54 °FPassing clouds.12 mph58%29.59 "HgN/A
12:00 am54 °FClear.No wind63%29.59 "Hg10 mi
9:00 pm
Mon, Apr 24
57 °FClear.5 mph59%29.59 "Hg10 mi
8:00 pm57 °FPassing clouds.2 mph63%29.56 "HgN/A
7:00 pm57 °FPassing clouds.5 mph67%29.56 "HgN/A
6:00 pm63 °FPassing clouds.5 mph59%29.56 "HgN/A
5:00 pm64 °FPassing clouds.17 mph40%29.56 "HgN/A
4:00 pm64 °FPassing clouds.15 mph43%29.56 "HgN/A
3:00 pm61 °FPassing clouds.17 mph48%29.56 "HgN/A
2:00 pm59 °FSunny.15 mph51%29.59 "Hg10 mi
1:00 pm57 °FPassing clouds.9 mph63%29.62 "HgN/A
12:00 pm59 °FLight rain. Partly sunny.12 mph42%29.62 "HgN/A
11:25 am54 °FLight rain. Partly sunny.20 mph58%29.65 "HgN/A
11:00 am54 °FSunny.16 mph58%29.65 "Hg10 mi
10:00 am54 °FPassing clouds.13 mph51%29.68 "HgN/A
9:00 am54 °FScattered clouds.9 mph54%29.65 "HgN/A
8:00 am54 °FPassing clouds.12 mph47%29.68 "HgN/A
7:00 am52 °FClear.8 mph54%29.71 "Hg10 mi
6:00 am52 °FClear.7 mph58%29.74 "Hg10 mi
Weather by CustomWeather, © 2017

See weather overviewHow to use our weather pages